Probability
0 0 0 0 0 0 0 0 0 0 0 0 0 0 0 0 0 0 0 0 0 0 0 0 0 0 0 0 0 0 0 0 0 0 0 0 0 6
0 0 0 0 0 0 0 0 0 0 0 0 0 0 0 0 0 0 0 0 0 0 0 0 0 0 0 0 0 0 0 0 0 0 0 0 0 0
0 0 0 0 0 0 0 0 0 0 0 0 0 0 0 0 0 0 0 0 0 0 0 0 0 0 0 0 0 0 0 0 0 0 0 0 0 0
0 0 0 0 0 0 0 0 0 0 0 0 0 0 0 0 0 0 0 0 0 0 0 0 0 0 0 0 0 0 0 0 0 0 0 0 0 0
0 0 0 0 0 0 0 0 0 0 0 0 0 0 0 0 0 0 0 0 0 0 0 0 0 0 0 0 0 0 0 0 0 0 0 0 0 0
0 0 0 0 0 0 0 0 0 0 0 0 0 0 0 0 0 0 0 0 0 0 0 0 0 0 0 0 0 0 0 0 0 0 0 0 0 0
0 0 0 0 0 0 0 0 0 0 0 0 0 0 0 0 0 0 0 0 0 0 0 0 0 0 0 0 0 0 0 0 0 0 0 0 0 0
0 0 0 0 0 0 0 0 0 0 0 0 0 0 0 0 0 0 0 0 0 0 0 0 0 0 0 0 0 0 0 0 0 0 0 0 0 0
0 0 0 0 0 0 0 0 0 0 0 0 0 0 0 0 0 0 0 0 0 0 0 0 0 0 0 0 0 0 0 0 0 0 0 0 0 0
0 0 0 0 0 0 0 0 0 0 0 0 0 0 0 0 0 0 0 0 0 0 0 0 0 0 0 0 0 0 0 0 0 0 0 0 0 0
0 0 0 0 0 0 0 0 0 0 0 0 0 0 0 0 0 0 0 0 0 0 0 0 0 0 0 0 0 0 0 0 0 0 0 0 0 0
0 0 0 0 0 0 0 0 0 0 0 0 0 0 0 0 0 0 0 0 0 0 0 0 0 0 0 0 0 0 0 0 0 0 0 0 0 0
0 0 0 0 0 0 0 0 0 0 0 0 0 0 0 0 0 0 0 0 0 0 0 0 0 0 0 0 0 0 0 0 0 0 0 0 0 0
0 0 0 0 0 0 0 0 0 0 0 0 0 0 0 0 0 0 0 0 0 0 0 0 0 0 0 0 0 0 0 0 0 0 0 0 0 0
0 0 0 0 0 0 0 0 0 0 0 0 0 0 0 0 0 0 0 0 0 0 0 0 0 0 0 0 0 0 0 0 0 0 0 0 0 0
0 0 0 0 0 0 0 0 0 0 0 0 0 0 0 0 0 0 0 0 0 0 0 0 0 0 0 0 0 0 0 0 0 0 0 0 0 0
0 0 0 0 0 0 0 0 0 0 0 0 0 0 0 0 0 0 0 0 0 0 0 0 0 0 0 0 0 0 0 0 0 0 0 0 0 0
0 0 0 0 0 0 0 0 0 0 0 0 0 0 0 0 0 0 0 0 0 0 0 0 0 0 0 0 0 0 0 0 0 0 0 0 0 0
0 0 0 0 0 0 0 0 0 0 0 0 0 0 0 0 0 0 0 0 0 0 0 0 0 0 0 0 0 0 0 0 0 0 0 0 0 0
0 0 0 0 0 0 0 0 0 0 0 0 0 0 0 0 0 0 0 0 0 0 0 0 0 0 0 0 0 0 0 0 0 0 0 0 0 0
0 0 0 0 0 0 0 0 0 0 0 0 0 0 0 0 0 0 0 0 0 0 0 0 0 0 0 0 0 0 0 0 0 0 0 0 0 0
0 0 0 0 0 0 0 0 0 0 0 0 0 0 0 0 0 0 0 0 0 0 0 0 0 0 0 0 0 0 0 0 0 0 0 0 0 0
0 0 0 0 0 0 0 0 0 0 0 0 0 0 0 0 0 0 0 0 0 0 0 0 0 0 0 0 0 0 0 0 0 0 0 0 0 0
Height
5814 5817 5819 5822 5825 5827 5829 5830 5832 5833 5835 5836 5838 5839 5840 5841 5843 5844 5846 5847 5849 5849 5850 5850 5851 5852 5853 5853 5852 5851 5850 5849 5849 5850 5850 5850 5850 5850
5807 5810 5813 5815 5818 5820 5823 5824 5826 5828 5829 5831 5833 5834 5835 5837 5838 5840 5841 5843 5844 5844 5845 5845 5845 5846 5846 5846 5845 5844 5843 5843 5843 5843 5843 5843 5842 5841
5800 5803 5806 5808 5811 5813 5816 5818 5820 5821 5823 5825 5827 5829 5830 5831 5832 5834 5836 5837 5838 5839 5839 5840 5840 5840 5840 5839 5838 5837 5836 5836 5836 5836 5835 5835 5833 5833
5793 5796 5799 5801 5803 5805 5808 5810 5812 5815 5817 5819 5820 5822 5824 5826 5827 5828 5830 5832 5833 5833 5834 5834 5834 5834 5834 5833 5831 5830 5830 5830 5830 5829 5828 5826 5825 5825
5784 5788 5790 5792 5795 5797 5799 5802 5805 5807 5810 5812 5814 5816 5817 5819 5821 5823 5824 5826 5827 5827 5828 5828 5828 5828 5828 5827 5826 5825 5824 5825 5824 5822 5820 5817 5815 5814
5776 5779 5782 5784 5787 5789 5791 5794 5797 5800 5803 5806 5808 5809 5811 5813 5815 5817 5819 5820 5821 5822 5822 5822 5823 5823 5822 5822 5822 5821 5820 5819 5818 5816 5812 5808 5804 5803
5768 5771 5774 5776 5779 5782 5785 5787 5790 5793 5796 5799 5802 5804 5806 5808 5810 5811 5813 5815 5816 5817 5817 5817 5817 5817 5816 5816 5817 5816 5816 5815 5813 5811 5807 5803 5798 5796
5760 5763 5766 5769 5772 5774 5778 5781 5784 5787 5790 5793 5796 5798 5800 5802 5805 5806 5808 5809 5811 5812 5812 5812 5812 5811 5811 5811 5811 5811 5811 5810 5809 5807 5804 5801 5796 5793
5753 5756 5759 5762 5765 5768 5770 5774 5777 5780 5784 5787 5790 5792 5794 5797 5799 5801 5803 5803 5805 5806 5806 5806 5806 5806 5806 5805 5805 5805 5805 5805 5804 5804 5802 5800 5796 5793
5746 5749 5751 5754 5757 5760 5764 5767 5770 5773 5777 5781 5783 5785 5788 5790 5793 5795 5796 5797 5797 5799 5800 5801 5800 5800 5800 5799 5799 5800 5800 5800 5800 5800 5800 5799 5797 5795
5740 5742 5744 5746 5750 5753 5756 5760 5763 5766 5770 5773 5776 5778 5781 5784 5786 5788 5789 5790 5791 5792 5794 5795 5794 5794 5794 5794 5794 5795 5795 5795 5796 5796 5797 5797 5796 5795
5734 5735 5737 5739 5742 5745 5748 5752 5755 5759 5762 5766 5768 5771 5773 5777 5779 5781 5782 5783 5784 5786 5788 5788 5788 5788 5789 5789 5790 5789 5790 5791 5792 5792 5793 5793 5793 5793
5727 5729 5731 5732 5734 5737 5740 5743 5747 5751 5755 5758 5761 5764 5767 5770 5772 5774 5775 5776 5777 5779 5781 5782 5782 5782 5783 5784 5784 5784 5785 5786 5787 5788 5789 5790 5790 5790
5721 5723 5724 5726 5727 5729 5732 5735 5739 5743 5746 5750 5753 5756 5759 5762 5764 5765 5766 5768 5770 5772 5773 5775 5776 5776 5777 5778 5779 5779 5780 5781 5782 5784 5784 5785 5786 5786
5715 5717 5718 5720 5721 5723 5725 5728 5731 5735 5738 5741 5744 5748 5750 5753 5755 5757 5758 5760 5762 5763 5765 5767 5769 5769 5770 5771 5772 5773 5773 5775 5776 5778 5779 5779 5780 5781
5709 5711 5713 5714 5715 5716 5718 5721 5724 5727 5729 5732 5735 5738 5741 5744 5746 5748 5750 5751 5754 5755 5756 5758 5761 5762 5763 5764 5765 5766 5767 5768 5770 5771 5772 5773 5773 5774
5704 5706 5708 5709 5711 5711 5712 5714 5716 5719 5722 5725 5728 5730 5733 5735 5737 5739 5741 5743 5745 5746 5748 5750 5752 5754 5755 5756 5757 5758 5760 5761 5763 5765 5765 5765 5766 5767
5699 5701 5703 5704 5705 5706 5707 5708 5710 5712 5714 5717 5720 5723 5725 5727 5728 5730 5731 5733 5735 5737 5738 5740 5743 5744 5746 5747 5749 5750 5752 5753 5754 5756 5757 5757 5757 5758
5693 5695 5697 5698 5700 5701 5702 5703 5704 5705 5707 5709 5712 5714 5716 5718 5719 5720 5722 5723 5724 5726 5728 5730 5732 5734 5736 5737 5739 5743 5744 5744 5745 5747 5748 5749 5748 5748
5687 5689 5691 5692 5693 5694 5695 5696 5697 5698 5699 5701 5702 5704 5706 5707 5709 5710 5711 5712 5713 5715 5717 5719 5721 5723 5725 5727 5730 5732 5733 5734 5736 5737 5738 5738 5738 5737
5683 5684 5685 5686 5687 5687 5687 5687 5688 5689 5690 5692 5693 5695 5696 5697 5699 5700 5701 5703 5704 5705 5707 5709 5711 5714 5716 5717 5720 5721 5722 5725 5726 5727 5726 5726 5726 5725
5678 5678 5679 5679 5679 5679 5679 5679 5679 5679 5680 5681 5682 5684 5686 5687 5690 5692 5694 5696 5697 5699 5700 5701 5703 5705 5707 5708 5709 5710 5712 5714 5715 5715 5714 5714 5713 5712
5672 5673 5673 5672 5672 5671 5670 5670 5669 5669 5669 5670 5671 5673 5675 5678 5680 5683 5685 5688 5689 5690 5691 5693 5695 5696 5698 5699 5700 5700 5701 5702 5703 5703 5703 5701 5701 5699
Wind_Speed
30 31 30 28 27 25 23 22 21 19 19 19 19 19 18 17 17 17 17 18 19 20 22 23 24 24 23 23 24 25 25 24 24 24 25 26 27 29
30 29 30 31 30 28 27 26 25 23 21 21 20 20 19 18 17 18 19 20 20 21 22 24 24 23 23 24 25 25 25 25 25 26 28 28 28 29
32 31 32 33 32 31 30 29 28 26 24 23 22 22 21 19 18 20 21 21 21 20 21 22 22 23 24 24 24 23 23 25 26 27 27 28 28 28
35 35 36 36 35 33 33 33 31 28 26 25 26 25 24 22 20 21 22 23 22 20 21 22 22 23 23 23 23 21 21 23 25 27 28 29 30 29
34 34 34 33 32 33 34 35 34 31 29 28 28 27 26 23 22 22 23 24 22 22 22 23 23 22 21 21 21 19 18 21 25 28 30 33 33 32
33 33 33 32 31 31 32 33 33 32 30 28 27 25 23 21 20 21 21 21 21 21 22 22 22 22 20 19 18 17 17 19 23 27 30 31 29 28
33 33 33 32 31 30 29 30 30 31 30 28 26 24 22 19 20 21 21 21 21 21 22 22 22 21 19 18 17 16 16 18 20 23 26 24 22 20
31 33 33 31 30 31 30 29 30 30 29 27 27 26 23 20 19 21 22 23 24 24 23 22 22 21 20 19 19 17 16 17 17 17 19 16 13 11
28 30 32 32 30 30 32 32 31 31 29 27 27 27 25 22 20 21 21 22 24 24 24 23 23 22 21 20 20 19 18 17 15 14 14 11 8 4
27 28 30 32 32 31 32 32 32 32 30 29 28 27 26 25 23 22 22 22 24 24 25 25 23 22 21 21 20 20 19 18 15 13 12 10 6 4
28 27 26 30 33 33 33 33 33 33 32 30 28 28 27 26 25 24 24 23 24 25 26 26 24 21 21 21 20 19 18 17 16 14 13 11 9 7
29 28 28 28 31 34 35 34 34 33 33 32 31 30 28 26 25 25 25 24 25 26 27 27 24 22 22 21 21 19 18 17 17 16 15 14 12 10
26 27 27 28 28 31 35 37 36 35 34 34 33 31 29 27 26 27 28 28 28 28 28 28 26 24 23 23 22 20 19 19 19 19 18 17 17 16
22 24 26 27 27 26 29 34 37 38 37 36 34 32 31 31 30 31 31 30 29 29 31 30 29 27 26 25 24 23 22 22 22 21 21 21 20 20
22 21 23 25 27 27 27 29 32 35 38 38 36 34 34 35 34 34 34 33 31 30 31 32 30 30 29 27 27 26 25 25 25 24 23 23 23 24
24 23 21 22 24 27 28 29 30 30 32 33 34 36 36 36 37 37 36 35 34 33 34 34 33 32 31 31 30 29 28 28 28 27 25 25 25 26
24 24 24 23 23 23 24 27 30 32 32 31 31 33 35 36 36 37 36 36 36 34 35 37 37 35 33 33 34 33 31 30 30 29 28 28 28 29
23 23 23 21 20 20 22 24 27 30 32 33 33 33 34 34 35 36 37 37 36 36 37 39 40 39 37 36 36 34 33 32 32 31 31 32 33 34
21 21 21 20 20 19 20 21 22 24 26 29 32 34 35 36 36 37 37 36 36 37 39 42 43 43 41 39 36 34 33 34 34 34 34 34 36 38
19 19 20 21 22 23 24 24 25 25 25 27 29 31 32 33 33 34 34 35 36 39 42 44 45 45 43 39 35 33 34 34 34 35 36 37 38 40
18 20 21 23 24 26 27 28 29 30 30 30 30 29 28 28 28 29 31 32 34 39 42 43 43 42 39 35 33 34 34 33 34 37 38 40 41 42
18 20 21 22 23 24 25 27 28 30 32 33 33 31 29 28 28 28 29 31 34 36 38 39 37 34 33 32 33 33 34 35 36 37 38 40 41 42
16 17 18 19 20 21 23 24 26 28 29 31 32 32 32 31 31 31 32 33 31 31 32 33 32 31 31 33 34 34 35 37 38 38 39 41 42 43
Wind_Direction
239 238 241 242 244 244 243 245 248 253 253 247 247 250 250 251 253 255 255 258 260 260 260 261 260 259 261 267 276 281 284 283 282 281 279 278 276 274
236 237 238 239 244 246 246 246 249 253 256 252 249 249 251 253 255 257 259 261 264 264 263 262 260 260 265 272 278 281 283 283 282 281 282 282 281 277
238 240 242 241 242 244 245 245 247 248 252 251 251 252 253 252 253 258 261 261 262 264 264 264 263 266 272 276 277 280 282 282 283 284 285 285 283 277
242 244 246 246 243 244 244 243 241 242 247 249 251 253 253 251 251 257 264 265 265 267 268 268 269 271 274 276 279 281 282 285 287 289 290 287 280 270
241 243 244 243 242 240 240 239 238 240 244 249 252 252 252 250 253 259 263 265 266 268 269 269 269 271 273 276 276 278 282 287 291 294 295 292 282 263
240 241 241 240 238 237 236 234 236 238 242 245 247 250 250 252 256 257 258 260 263 266 265 265 268 271 272 272 271 276 281 287 293 299 303 300 288 268
239 238 238 238 236 234 232 232 235 237 239 241 245 248 252 255 257 255 254 257 260 262 262 262 267 271 273 271 273 276 281 287 293 302 308 304 293 277
241 237 235 234 233 231 229 230 233 235 236 238 241 246 250 253 254 256 257 259 260 259 260 262 266 269 270 271 274 277 282 285 289 296 305 307 301 271
243 237 232 230 230 230 228 228 229 231 231 233 237 244 249 249 253 255 256 257 258 259 260 261 263 267 269 273 276 276 281 284 282 284 290 302 312 295
244 240 236 232 229 228 226 226 227 229 230 231 233 237 242 246 251 250 252 256 257 258 258 259 261 267 271 274 274 272 275 281 275 273 272 270 284 299
247 244 242 236 231 228 226 225 226 229 229 229 231 235 241 246 249 249 254 256 257 257 256 258 260 265 270 272 271 268 269 272 268 262 261 254 247 247
247 245 244 240 236 232 229 227 227 228 227 227 231 236 241 245 246 247 250 255 259 257 256 258 258 261 265 267 267 266 262 262 260 257 256 253 249 246
247 248 248 246 241 238 234 232 229 228 228 230 235 239 242 245 248 250 251 256 260 258 256 257 258 257 260 263 264 263 259 257 258 258 255 251 249 248
245 248 250 251 245 240 236 233 230 229 228 230 232 236 240 243 246 249 253 258 261 261 256 254 256 256 257 259 261 261 259 256 256 257 257 254 252 250
246 250 253 255 253 245 235 228 228 230 230 231 233 236 240 244 245 249 255 257 261 262 256 250 252 254 256 257 258 258 259 259 258 257 257 257 254 252
245 250 254 261 264 257 246 236 231 230 233 236 241 244 246 247 249 252 256 256 257 260 254 249 250 252 255 257 257 256 257 260 262 262 263 262 260 257
245 249 255 260 263 262 256 251 245 239 237 240 245 246 247 248 252 254 257 257 256 257 255 253 253 253 254 256 256 256 258 260 264 265 266 266 266 264
244 247 251 254 256 257 255 253 251 248 245 243 245 247 249 251 255 258 259 259 255 252 252 255 257 256 253 253 253 255 256 259 263 264 265 267 268 269
244 243 246 252 257 258 256 254 253 252 250 249 249 251 253 254 257 258 258 257 255 252 251 255 258 259 255 251 251 253 256 257 259 261 263 265 268 270
244 244 247 254 259 261 260 259 258 257 256 254 252 251 252 254 256 256 254 255 255 253 253 254 256 257 255 250 251 252 253 257 262 265 266 266 267 269
250 252 256 261 265 266 266 264 263 261 260 258 256 253 251 252 254 255 252 253 255 254 253 252 251 255 256 251 251 252 255 259 262 264 266 268 269 269
261 263 265 268 270 270 269 268 266 263 261 259 257 255 253 251 249 249 248 250 253 255 254 249 248 252 257 259 257 256 260 263 265 266 269 271 272 273
270 270 272 276 278 277 276 273 271 267 263 259 257 254 251 248 245 244 246 248 250 252 253 252 253 259 266 267 264 264 265 267 267 269 271 274 275 277